Tracking 19176 objects as of 25-May-2018
HD Live streaming from Space Station
objects crossing your sky now

SPACENET 4 (ASC 2)

Track SPACENET 4 (ASC 2) now!
SPACENET 4 (ASC 2) is classified as:


NORAD ID: 21227
Int'l Code: 1991-028A
Perigee: 35,958.4 km
Apogee: 36,025.7 km
Inclination: 11.2 °
Period: 1,446.2 minutes
Semi major axis: 42363 km
RCS: 6.3095 m2 (large)
Launch date: April 13, 1991
Source: United States (US)
Launch site: AIR FORCE EASTERN TEST RANGE (AFETR)

Communications in Pacific region.
aabbcc
Your satellite tracking list
Your tracking list is empty




NASA's NSSDC Master Catalog

Two Line Element Set (TLE):
1 21227U 91028A   18144.72616757 -.00000310 +00000-0 +00000-0 0  9998
2 21227 011.1750 034.9825 0007951 277.9513 307.0688 00.99568566097044
Source of the keplerian elements: AFSPC